[[{"header":{"parameterUnit":"m.s-1","parameterCategory":1,"la1":30.2991,"la2":30.254,"lo1":-89.0895,"lo2":-89.0444,"dy":0.0017,"dx":0.0017,"nx":28,"ny":28,"refTime":"2023-09-29T09:00:00:Z","depth":0,"parameterNumber":2,"parameterNumberName":"U-component_of_WINDS"},"data":[0,0,0,0,0,0,0,0,0,0,0,0,0,0,0,0,0,0,0,0,0,0,0,0,0,0,0,0,0,0,0,0,0,0,0,0,0,0,0,0,0,0,0,0,0,0,0,0,0,0,0,0,0,0,0,0,0,0,-3.5285,-3.5284,0,-3.5248,-3.5248,-3.5247,-3.5101,-3.5098,-3.5095,-3.5092,-3.5059,-3.5061,-3.5063,0,0,0,0,0,0,0,0,0,0,0,0,0,-3.5234,-3.5236,-3.5285,-3.5284,-3.5284,-3.5248,-3.5248,-3.5247,-3.5102,-3.5098,-3.5094,-3.509,-3.5058,-3.506,-3.5063,0,0,0,0,0,0,0,0,0,0,0,0,0,-3.5233,-3.5237,-3.5285,-3.5207,-3.52,-3.5248,-3.5248,-3.5247,-3.5103,-3.5098,-3.5093,-3.5088,-3.5057,-3.506,-3.5064,-3.5186,0,0,-3.5074,-3.5075,0,0,0,0,0,0,0,0,-3.5233,-3.5235,-3.5219,-3.5212,-3.5204,-3.5174,-3.5218,-3.5227,-3.5104,-3.514,-3.5091,-3.5086,-3.5101,-3.5101,-3.5105,-3.5184,-3.5183,-3.5074,-3.5076,-3.5078,-3.5079,0,0,0,0,0,0,0,-3.5234,-3.5236,-3.527,-3.5219,-3.521,-3.5176,-3.517,-3.5219,-3.515,-3.5136,-3.5126,-3.5123,-3.5096,-3.5102,-3.5103,-3.5182,-3.5074,-3.5077,-3.5079,-3.5081,-3.5364,-3.5369,0,0,0,0,0,0,-3.5244,-3.5237,-3.5271,-3.5269,-3.5206,-3.5181,-3.5174,-3.5189,-3.5149,-3.5137,-3.5127,-3.5116,-3.5099,-3.51,-3.5102,-3.5245,-3.5078,-3.5081,-3.5083,-3.5359,-3.5365,-3.5371,0,0,0,0,0,0,-3.5244,-3.5249,-3.5273,-3.525,-3.5251,-3.5187,-3.5205,-3.5191,-3.5196,-3.5142,-3.5129,-3.5146,-3.5095,-3.5097,-3.5167,-3.5242,-3.5082,-3.5086,-3.5352,-3.5361,-3.5368,-3.5531,0,0,0,0,0,0,-3.5243,-3.5249,-3.5293,-3.5252,-3.5252,-3.5337,-3.5209,-3.5194,-3.5202,-3.5188,-3.5156,-3.5146,-3.5091,-3.5162,-3.517,-3.5243,-3.5088,-3.5345,-3.5356,-3.5366,-3.5519,-3.5544,-3.5565,0,0,0,0,0,-3.5241,-3.5341,-3.5296,-3.5301,-3.5306,-3.5342,-3.5342,-3.5276,-3.5209,-3.5254,-3.522,-3.5147,-3.5232,-3.5171,-3.5178,-3.5254,-3.534,-3.5353,-3.5365,-3.5508,-3.5539,-3.5565,0,0,0,0,0,0,-3.5393,-3.5334,-3.5284,-3.5372,-3.5363,-3.5317,-3.5372,-3.531,-3.532,-3.5306,-3.5225,-3.522,-3.5302,-3.5284,-3.5217,-3.5372,-3.5274,-3.5289,-3.5381,-3.5409,-3.5432,-3.5436,-3.5091,0,0,0,0,0,-3.5437,-3.5469,-3.5416,-3.5499,-3.5497,-3.5436,-3.5449,-3.5399,-3.5387,-3.5382,-3.5352,-3.5345,-3.537,-3.5388,-3.5408,-3.5515,-3.5508,-3.5571,-3.5594,-3.5614,-3.5628,-3.5687,-3.5715,-3.5412,-3.5412,-3.5411,0,0,-3.5528,-3.5499,-3.5524,-3.5529,-3.5516,-3.5554,-3.5433,-3.5477,-3.5505,-3.5389,-3.5453,-3.5432,-3.5418,-3.5508,-3.5546,-3.5496,-3.571,-3.5629,-3.5645,-3.5649,-3.5703,-3.5731,-3.5757,-3.542,-3.5419,-3.5417,0,0,-3.5713,-3.5693,-3.5762,-3.5752,-3.5733,-3.5692,-3.5709,-3.5673,-3.5654,-3.5717,-3.5632,-3.5664,-3.5708,-3.5703,-3.5706,-3.5893,-3.5828,-3.5902,-3.6024,-3.6083,-3.6107,-3.6127,-3.6197,-3.6223,-3.5916,-3.5916,-3.5916,0,-3.5828,-3.5879,-3.5805,-3.5856,-3.5862,-3.5758,-3.5829,-3.5823,-3.5813,-3.5821,-3.5764,-3.582,-3.5803,-3.5892,-3.5938,-3.5942,-3.5962,-3.5905,-3.6109,-3.6129,-3.6147,-3.6213,-3.6239,-3.5925,-3.5924,-3.5923,-3.5922,0,-3.6024,-3.6062,-3.612,-3.6112,-3.6125,-3.6185,-3.6123,-3.6145,-3.6095,-3.6061,-3.6129,-3.6105,-3.612,-3.6137,-3.6088,-3.6221,-3.619,-3.6123,-3.6023,-3.6187,-3.6247,-3.6272,-3.5939,-3.5935,-3.5932,-3.593,0,0,-3.6303,-3.6256,-3.6278,-3.6275,-3.6249,-3.6277,-3.6334,-3.6348,-3.637,-3.6367,-3.6416,-3.6457,-3.6395,-3.6399,-3.6349,-3.64,-3.6553,-3.6326,-3.6324,-3.6372,-3.6702,-3.6755,-3.6785,-3.6509,-3.6514,-3.6517,-3.6704,0,-3.6482,-3.6575,-3.6512,-3.6617,-3.6653,-3.6556,-3.6606,-3.6597,-3.6568,-3.6595,-3.6562,-3.6594,-3.6508,-3.651,-3.6556,-3.6525,-3.6619,-3.651,-3.6556,-3.6559,-3.6565,-3.6816,-3.6871,-3.7048,-3.6727,-3.6731,-3.6733,0,-3.6702,-3.6709,-3.6818,-3.6787,-3.68,-3.6846,-3.6855,-3.6882,-3.6871,-3.6846,-3.6852,-3.679,-3.6847,-3.6748,-3.6827,-3.6755,-3.677,-3.6758,-3.6763,-3.6767,-3.6658,-3.6829,-3.7103,-3.7131,-3.6769,-3.6767,-3.6764,0,-3.6899,-3.6935,-3.7006,-3.7006,-3.6971,-3.7006,-3.6994,-3.6977,-3.699,-3.6999,-3.7008,-3.7024,-3.7033,-3.7048,-3.6993,-3.6926,-3.7082,-3.6977,-3.7065,-3.7067,-3.7103,-3.7102,-3.7387,-3.711,-3.7109,-3.7109,-3.7108,0,-3.7106,-3.7177,-3.7094,-3.7138,-3.7216,-3.7143,-3.7223,-3.7201,-3.7188,-3.7227,-3.7144,-3.7184,-3.7108,-3.7141,-3.7098,-3.7173,-3.7177,-3.7161,-3.7149,-3.7169,-3.7172,-3.718,-3.7167,-3.7116,-3.7114,-3.7113,-3.7112,0,-3.7339,-3.7285,-3.7357,-3.7318,-3.731,-3.737,-3.7338,-3.7378,-3.7343,-3.7395,-3.7403,-3.735,-3.7384,-3.7331,-3.7359,-3.7331,-3.7435,-3.7403,-3.7438,-3.743,-3.7522,-3.7516,-3.7823,-3.7861,-3.7559,-3.7561,-3.7564,0,-3.7475,-3.7528,-3.7496,-3.7516,-3.7508,-3.7541,-3.7555,-3.7486,-3.7504,-3.7498,-3.754,-3.7567,-3.7586,-3.7646,-3.7611,-3.7633,-3.7603,-3.771,-3.7606,-3.7626,-3.7608,-3.7607,-3.7614,-3.7732,-3.7735,-3.7738,-3.7741,0,-3.7725,-3.7697,-3.7718,-3.7733,-3.7751,-3.7759,-3.7761,-3.7783,-3.7711,-3.7737,-3.777,-3.7785,-3.7815,-3.7844,-3.7858,-3.7847,-3.7785,-3.7773,-3.7795,-3.7818,-3.7838,-3.7831,-3.7499,-3.7767,-3.7764,-3.7762,-3.7761,-3.776,-3.7915,-3.7959,-3.7944,-3.7972,-3.7967,-3.7971,-3.8008,-3.7979,-3.8005,-3.8023,-3.7982,-3.8027,-3.8018,-3.803,-3.8027,-3.8063,-3.8016,-3.8048,-3.8056,-3.8065,-3.8081,-3.783,-3.8065,-3.8064,-3.8063,-3.8062,-3.8062,0,-3.8163,-3.8149,-3.8175,-3.8181,-3.8205,-3.8141,-3.8141,-3.8166,-3.8206,-3.8202,-3.8222,-3.8263,-3.8292,-3.8261,-3.8284,-3.832,-3.8292,-3.8329,-3.8327,-3.8326,-3.812,-3.8099,-3.8351,-3.8351,-3.8351,-3.8351,-3.8351,-3.8351,-3.8295,-3.8366,-3.8337,-3.8406,-3.8391,-3.8434,-3.844,-3.8445,-3.8442,-3.8491,-3.8515,-3.8493,-3.848,-3.8502,-3.8527,-3.8517,-3.8531,-3.858,-3.856,-3.8368,-3.834,-3.8313,-3.8294,-3.8582,-3.8583,-3.8763,-3.8765,-3.8766]},{"header":{"parameterUnit":"m.s-1","parameterCategory":1,"la1":30.2991,"la2":30.254,"lo1":-89.0895,"lo2":-89.0444,"dy":0.0017,"dx":0.0017,"nx":28,"ny":28,"refTime":"2023-09-29T09:00:00:Z","depth":0,"parameterNumber":3,"parameterNumberName":"V-component_of_WINDS"},"data":[0,0,0,0,0,0,0,0,0,0,0,0,0,0,0,0,0,0,0,0,0,0,0,0,0,0,0,0,0,0,0,0,0,0,0,0,0,0,0,0,0,0,0,0,0,0,0,0,0,0,0,0,0,0,0,0,0,0,1.6871,1.6871,0,1.6865,1.6865,1.6864,1.6883,1.6884,1.6884,1.6885,1.6873,1.6872,1.6872,0,0,0,0,0,0,0,0,0,0,0,0,0,1.6896,1.6896,1.6871,1.6871,1.6871,1.6865,1.6865,1.6864,1.6883,1.6884,1.6884,1.6885,1.6873,1.6872,1.6871,0,0,0,0,0,0,0,0,0,0,0,0,0,1.6887,1.6895,1.6871,1.688,1.688,1.6865,1.6865,1.6864,1.6883,1.6884,1.6884,1.6885,1.6874,1.6873,1.6871,1.6846,0,0,1.6867,1.6867,0,0,0,0,0,0,0,0,1.6887,1.6886,1.6878,1.6879,1.688,1.6876,1.6869,1.6858,1.6882,1.6882,1.6885,1.6886,1.6873,1.6872,1.6868,1.6845,1.6845,1.6867,1.6866,1.6866,1.6866,0,0,0,0,0,0,0,1.6888,1.6886,1.6868,1.6878,1.6879,1.6882,1.6882,1.6867,1.6872,1.6882,1.6883,1.6882,1.6873,1.687,1.6868,1.6845,1.6867,1.6866,1.6865,1.6865,1.6799,1.6798,0,0,0,0,0,0,1.6888,1.6887,1.6869,1.6868,1.6886,1.6881,1.6881,1.6876,1.6873,1.6873,1.6882,1.6883,1.6871,1.687,1.6868,1.6837,1.6866,1.6865,1.6864,1.68,1.6799,1.6798,0,0,0,0,0,0,1.6889,1.6886,1.6869,1.6878,1.6876,1.688,1.6874,1.6875,1.6872,1.6872,1.6873,1.6877,1.6872,1.687,1.6851,1.6837,1.6864,1.6863,1.6801,1.68,1.6798,1.6774,0,0,0,0,0,0,1.6889,1.6886,1.6877,1.6878,1.6875,1.6853,1.6873,1.6875,1.687,1.6872,1.6868,1.6868,1.6873,1.6853,1.685,1.6835,1.6862,1.6803,1.6801,1.6799,1.6776,1.6772,1.6769,0,0,0,0,0,1.689,1.687,1.6877,1.6875,1.6865,1.6852,1.6851,1.6857,1.6869,1.6859,1.686,1.6869,1.684,1.6851,1.6848,1.6832,1.6803,1.6801,1.6799,1.6778,1.6773,1.6769,0,0,0,0,0,0,1.6866,1.687,1.6878,1.6858,1.6855,1.6856,1.6843,1.6852,1.6845,1.6847,1.6854,1.6853,1.6832,1.6831,1.6844,1.6807,1.6823,1.682,1.6808,1.6804,1.68,1.6799,1.6861,0,0,0,0,0,1.6859,1.685,1.6854,1.6836,1.6834,1.6839,1.6834,1.684,1.6836,1.6835,1.6834,1.6829,1.6819,1.6812,1.6802,1.6778,1.6776,1.6765,1.6761,1.6758,1.6755,1.674,1.6735,1.6791,1.6791,1.6791,0,0,1.6843,1.6844,1.6838,1.6831,1.6829,1.6818,1.6838,1.6826,1.6817,1.6832,1.6814,1.6814,1.6809,1.6787,1.6777,1.6785,1.6739,1.6756,1.6753,1.6751,1.6737,1.6732,1.6727,1.6789,1.6789,1.679,0,0,1.6808,1.6809,1.6793,1.6792,1.679,1.6794,1.679,1.679,1.6791,1.6774,1.6785,1.6775,1.6757,1.6753,1.6749,1.6714,1.6721,1.6711,1.6689,1.6675,1.667,1.6666,1.6652,1.6647,1.6708,1.6708,1.6708,0,1.6788,1.6773,1.6784,1.6771,1.6767,1.6783,1.6766,1.6764,1.6758,1.6754,1.6764,1.6743,1.6741,1.6717,1.6709,1.6705,1.67,1.671,1.6671,1.6667,1.6663,1.6649,1.6644,1.6706,1.6707,1.6707,1.6707,0,1.6747,1.6737,1.6725,1.6721,1.6716,1.6701,1.6708,1.6702,1.6708,1.6711,1.6693,1.6691,1.6682,1.6677,1.6683,1.6654,1.6659,1.667,1.6685,1.6656,1.6643,1.6638,1.6704,1.6705,1.6705,1.6706,0,0,1.6694,1.6698,1.6693,1.6691,1.6691,1.6682,1.6668,1.6661,1.6654,1.665,1.6637,1.6623,1.6633,1.6628,1.6634,1.6622,1.6592,1.6634,1.6633,1.6623,1.6558,1.6547,1.6541,1.6598,1.6597,1.6596,1.6557,0,1.6658,1.6635,1.6645,1.662,1.661,1.6625,1.6613,1.6611,1.6614,1.6604,1.6607,1.6596,1.6611,1.6608,1.6597,1.6598,1.6578,1.6601,1.6583,1.6582,1.6581,1.6535,1.6524,1.6486,1.6552,1.6552,1.6551,0,1.6611,1.6607,1.6582,1.6584,1.658,1.6568,1.6562,1.6554,1.6552,1.6554,1.655,1.6558,1.6543,1.6562,1.654,1.6555,1.6549,1.6549,1.6547,1.6543,1.6562,1.6526,1.6475,1.6468,1.6543,1.6544,1.6545,0,1.6572,1.656,1.6543,1.6541,1.6544,1.6535,1.6536,1.6535,1.6529,1.6524,1.652,1.6512,1.6507,1.65,1.6506,1.652,1.6483,1.6502,1.6482,1.6482,1.6471,1.647,1.6414,1.6472,1.6472,1.6472,1.6472,0,1.6528,1.6511,1.6525,1.6514,1.6496,1.6508,1.6489,1.6491,1.649,1.6479,1.6493,1.6481,1.6492,1.6481,1.6486,1.6466,1.6464,1.6464,1.6465,1.6461,1.646,1.6454,1.6455,1.6471,1.6471,1.6471,1.6472,0,1.6479,1.6488,1.647,1.6475,1.6476,1.6461,1.6465,1.6454,1.6459,1.6445,1.6442,1.6448,1.6437,1.6443,1.6431,1.6434,1.6407,1.6413,1.6408,1.6408,1.6387,1.6388,1.6322,1.6313,1.638,1.6379,1.6379,0,1.6448,1.6436,1.644,1.6434,1.6434,1.6425,1.642,1.6432,1.6426,1.6423,1.6413,1.6403,1.6395,1.6376,1.6378,1.6369,1.6372,1.635,1.6371,1.6367,1.6368,1.6368,1.6365,1.6345,1.6344,1.6343,1.6343,0,1.6393,1.6398,1.6392,1.6387,1.6381,1.6377,1.6374,1.6368,1.6381,1.6373,1.6362,1.6357,1.6345,1.6334,1.6326,1.6325,1.6335,1.6337,1.6332,1.6325,1.6322,1.632,1.6393,1.6338,1.6338,1.6339,1.6339,1.6339,1.635,1.6339,1.634,1.6332,1.6332,1.633,1.632,1.6324,1.6316,1.6308,1.6316,1.6303,1.6301,1.6292,1.629,1.6278,1.6287,1.6279,1.6276,1.6273,1.6269,1.6327,1.6277,1.6277,1.6277,1.6278,1.6278,0,1.6292,1.6295,1.6287,1.6284,1.6277,1.6291,1.6289,1.6281,1.627,1.6269,1.6262,1.6249,1.6239,1.6242,1.6232,1.6222,1.6227,1.6219,1.6218,1.6217,1.6264,1.6268,1.6216,1.6216,1.6216,1.6216,1.6216,1.6216,1.6261,1.6243,1.6249,1.6231,1.6234,1.6222,1.6219,1.6216,1.6215,1.6201,1.6193,1.6196,1.6196,1.6187,1.6178,1.6179,1.6173,1.6164,1.6166,1.6208,1.6214,1.622,1.6224,1.6163,1.6163,1.612,1.6119,1.6119]}]]